Content
SEND FEEDBACK

Daily
Averages
Monthly
Summary
Iran

MASHHAD, IRAN


Home > Middle East > Iran
Elevation: 3214 feet     Latitude: 36 16N     Longitude: 059 38E

WEATHER
 
SELECT A DAY
Number of Records: 195,559;   Date Range: 2/9/98 - 4/19/14
 
SHARE

PRINT THIS DATA

[ ← Previous Day ]
WEATHER ALMANAC - JANUARY 17, 2014
[ Next Day → ]
[ °C ]   °F
Weather ElementAverageHighLow
Temperature35.9 °F50 °F (2:30 pm)21.2 °F (7:00 am)
Dewpoint21.8 °F26.6 °F (10:00 am)14 °F (11:00 pm)
Humidity58.6 %93 % (4:00 am)19 % (3:30 pm)
Barometer30.22 in30.49 in (12:30 am)30.06 in (10:00 pm)
Wind Speed3.6 mph6.9 mph (11:30 am)
Weather ElementAverage
Visibility4.9 mi
Wind DirectionSE (134.1 °)

Weather ElementTotal
Precipitation---
Heating Degree Days29.4 (Base 65)
Averaged from 56 records on January 17, 2014
WEATHER CONDITIONS BREAKOUT
WIND DIRECTION BREAKOUT
WEATHER BY HOUR - JANUARY 17, 2014
[ °C ]   °F
Local TimeTemperatureDewpointHumidityBarometerVisibilityWind DirectionWind SpeedGust SpeedPrecipitationEventsConditions
12:30 AM28.0 °F24.0 °F77 %30.49 in6.0 miSouth (180°)4.5 mphClear
12:30 AM28.4 °F23.0 °F80 %30.39 inSouth (180°)4.6 mphClear
1:00 AM28.4 °F23.0 °F80 %30.36 inSouth (190°)4.6 mphClear
1:30 AM28.4 °F23.0 °F80 %30.36 inSSW (200°)4.6 mphClear
2:00 AM28.4 °F23.0 °F80 %30.36 inSSW (200°)4.6 mphClear
2:30 AM26.6 °F23.0 °F86 %30.36 inSouth (190°)4.6 mphClear
3:00 AM28.4 °F23.0 °F80 %30.33 inSouth (180°)4.6 mphClear
3:30 AM28.4 °F23.0 °F80 %30.33 inSouth (190°)4.6 mphClear
3:30 AM28.0 °F24.0 °F77 %30.47 in6.0 miSouth (190°)4.5 mph
4:00 AM24.8 °F23.0 °F93 %30.33 inCalmClear
4:30 AM24.8 °F23.0 °F93 %30.33 inCalmClear
5:00 AM24.8 °F23.0 °F93 %30.30 inSouth (190°)4.6 mphClear
5:20 AM24.8 °F21.2 °F86 %30.30 inCalmClear
5:30 AM24.8 °F21.2 °F86 %30.30 inCalmClear
5:58 AM24.8 °F21.2 °F86 %30.30 inSouth (180°)4.6 mphClear
6:30 AM26.0 °F21.0 °F73 %30.45 in6.0 miSouth (180°)4.5 mphClear
6:30 AM24.8 °F21.2 °F86 %30.30 inSouth (180°)4.6 mphClear
7:00 AM21.2 °F17.6 °F86 %30.30 inNE (40°)4.6 mphClear
7:30 AM23.0 °F19.4 °F86 %30.30 inEast (90°)4.6 mphClear
8:00 AM30.2 °F21.2 °F69 %30.30 inCalmClear
8:30 AM33.8 °F23.0 °F65 %30.30 inCalmClear
8:55 AM35.6 °F24.8 °F65 %30.30 inNE (50°)4.6 mphClear
9:30 AM35.0 °F25.0 °F56 %30.41 in6.0 miENE (70°)4.5 mphClear
9:30 AM35.6 °F24.8 °F65 %30.30 inENE (70°)4.6 mphClear
10:00 AM39.2 °F26.6 °F61 %30.27 inCalmClear
10:30 AM41.0 °F26.6 °F57 %30.27 inNNE (30°)4.6 mphClear
11:00 AM41.0 °F24.8 °F53 %30.21 inNNE (30°)4.6 mphClear
11:30 AM42.8 °F24.8 °F49 %30.21 inNE (40°)6.9 mphClear
12:00 PM44.6 °F23.0 °F43 %30.18 inNW (320°)6.9 mphClear
12:30 PM45.0 °F22.0 °F28 %30.26 in6.0 miNNW (330°)6.7 mphClear
12:30 PM44.6 °F23.0 °F43 %30.15 inNNW (330°)6.9 mphClear
1:00 PM46.4 °F21.2 °F37 %30.15 inNW (320°)4.6 mphClear
1:30 PM46.4 °F21.2 °F37 %30.12 inNW (320°)6.9 mphClear
2:00 PM48.2 °F21.2 °F34 %30.12 inNNE (30°)4.6 mphClear
2:09 PM37.0 °F18.0 °F33 %30.18 in4.0 miSouth (180°)4.5 mphHaze
2:30 PM50.0 °F21.2 °F32 %30.12 inCalmClear
3:00 PM50.0 °F21.2 °F32 %30.12 inNNW (340°)4.6 mphClear
3:30 PM49.0 °F20.0 °F19 %30.19 in6.0 miCalmClear
3:30 PM48.2 °F19.4 °F32 %30.09 inCalmClear
3:55 PM48.2 °F21.2 °F34 %30.09 inSE (140°)4.6 mphClear
4:30 PM46.4 °F21.2 °F37 %30.09 inSE (140°)4.6 mphClear
4:55 PM44.6 °F23.0 °F43 %30.09 inSouth (180°)4.6 mphClear
5:30 PM44.6 °F23.0 °F43 %30.09 inSSE (160°)4.6 mphClear
6:00 PM41.0 °F23.0 °F49 %30.09 inCalmClear
6:30 PM39.0 °F23.0 °F39 %30.22 in6.0 miCalmClear
6:30 PM39.2 °F23.0 °F52 %30.09 inCalmClear
6:55 PM39.2 °F23.0 °F52 %30.09 in4.3 miSE (140°)4.6 mph
7:30 PM39.2 °F23.0 °F52 %30.09 in3.7 miSSE (160°)4.6 mph
8:00 PM39.2 °F21.2 °F49 %30.09 in4.3 miSouth (180°)4.6 mph
8:30 PM37.4 °F19.4 °F48 %30.09 in4.3 miSouth (170°)4.6 mph
9:00 PM37.4 °F17.6 °F45 %30.09 in4.3 miSSW (200°)4.6 mph
9:30 PM37.4 °F17.6 °F45 %30.09 in4.3 miSouth (180°)4.6 mph
10:00 PM35.6 °F17.6 °F48 %30.06 in4.3 miSouth (180°)4.6 mph
10:30 PM33.8 °F19.4 °F56 %30.06 in4.3 miSSW (200°)4.6 mph
11:00 PM35.6 °F14.0 °F41 %30.06 in4.3 miSouth (190°)4.6 mph
11:30 PM33.8 °F17.6 °F52 %30.06 in4.3 miCalm
Hourly data recorded from OIMM, located 2.77 miles away from Mashhad, Iran







STORIES FROM OUR PARTNERS